Date String (YYYY-MM-DD hh:mm:ss) UTC,Instrument flags,Ambient pressure (hPa),Sample flow (lpm),Bypass flow (lpm),Sample temperature (°C),Ambient temperature (°C),ASC tube jacket temperature (°C),LED temperature (°C),Box temperature (°C),Sample RH (%),Span deviation,Mass concentration (μg/m³),Mass concentration (μg/m³),Mass concentration (μg/m³)
DateTimeUTC,F1_M11,P_M11,Q1_M11,Q2_M11,T1_M11,T2_M11,T3_M11,T4_M11,T5_M11,U1_M11,ZSPAN_M11,X0_M11,X2_M11,X1_M11
2021-09-11 18:00:00,,0829.4,5.00,0.00,29.0,26.5,00.0,38.0,30.5,16.3,0001.7,0017.63,0009.89,0008.82
2021-09-11 18:01:00,,0829.5,4.99,0.00,28.9,25.8,00.0,38.0,30.3,16.3,0001.7,0017.58,0009.85,0008.76
2021-09-11 18:02:00,,0829.5,5.01,0.00,28.9,26.3,00.0,38.0,30.5,16.7,0001.9,0017.52,0009.83,0008.71
2021-09-11 18:03:00,,0829.5,5.00,0.00,28.9,26.7,00.0,38.0,30.6,15.8,0001.8,0018.22,0009.75,0008.62
2021-09-11 18:04:00,,0829.4,4.99,0.00,28.9,27.1,00.0,37.9,30.7,15.6,0001.8,0018.07,0009.65,0008.53
2021-09-11 18:05:00,,0829.4,5.02,0.00,29.0,27.5,00.0,38.0,30.8,14.9,0001.6,0017.09,0009.53,0008.41
2021-09-11 18:06:00,,0829.3,4.99,0.00,29.0,27.8,00.0,38.0,30.9,15.7,0001.6,0016.56,0009.36,0008.28
2021-09-11 18:07:00,,0829.3,4.99,0.00,29.1,28.1,00.0,38.0,31.0,15.9,0001.9,0017.66,0009.30,0008.19
2021-09-11 18:08:00,,0829.3,5.00,0.00,29.1,27.5,00.0,38.0,30.9,14.9,0002.1,0018.45,0009.20,0008.08
2021-09-11 18:09:00,,0829.3,5.01,0.00,29.0,26.3,00.0,38.0,30.6,15.0,0002.1,0017.66,0009.11,0008.00
2021-09-11 18:10:00,,0829.3,5.00,0.00,29.0,26.4,00.0,38.0,30.5,15.2,0001.8,0017.37,0009.05,0007.93
2021-09-11 18:11:00,,0829.2,4.99,0.00,29.0,26.8,00.0,38.0,30.7,15.2,0001.9,0017.45,0008.97,0007.87
2021-09-11 18:12:00,,0829.2,5.00,0.00,29.0,27.2,00.0,38.0,30.8,14.6,0002.0,0018.26,0008.88,0007.81
2021-09-11 18:13:00,,0829.2,5.01,0.00,29.0,27.5,00.0,38.0,30.9,14.5,0002.1,0018.68,0008.78,0007.74
2021-09-11 18:14:00,,0829.2,5.01,0.00,29.1,27.8,00.0,38.0,31.0,14.4,0002.2,0018.07,0008.75,0007.69
2021-09-11 18:15:00,,0829.2,4.99,0.00,29.1,27.3,00.0,38.0,30.9,14.3,0002.3,0018.11,0008.75,0007.65
2021-09-11 18:16:00,,0829.2,5.00,0.00,29.0,26.0,00.0,38.0,30.5,14.1,0002.4,0018.16,0008.73,0007.63
2021-09-11 18:17:00,,0829.2,5.00,0.00,29.0,26.3,00.0,38.0,30.5,14.6,0002.4,0018.09,0008.72,0007.60
2021-09-11 18:18:00,,0829.2,5.00,0.00,29.0,26.7,00.0,38.0,30.7,15.3,0002.3,0017.26,0008.67,0007.55
2021-09-11 18:19:00,,0829.2,5.00,0.00,29.0,27.1,00.0,38.0,30.8,14.7,0002.1,0016.34,0008.67,0007.52
2021-09-11 18:20:00,,0829.2,4.99,0.00,29.0,27.5,00.0,38.0,30.9,14.3,0002.3,0016.29,0008.66,0007.50
2021-09-11 18:21:00,,0829.2,4.99,0.00,29.1,27.8,00.0,38.0,31.0,14.6,0002.6,0016.15,0008.60,0007.48
2021-09-11 18:22:00,,0829.2,5.00,0.00,29.1,27.9,00.0,38.0,31.0,14.2,0002.4,0015.39,0008.57,0007.47
2021-09-11 18:23:00,,0829.1,5.01,0.00,29.1,26.6,00.0,38.0,30.7,14.3,0002.3,0014.68,0008.56,0007.47
2021-09-11 18:24:00,,0829.1,5.00,0.00,29.0,26.1,00.0,38.0,30.5,14.5,0002.2,0014.10,0008.55,0007.47
2021-09-11 18:25:00,,0829.0,4.99,0.00,29.0,26.5,00.0,38.0,30.6,14.9,0002.0,0013.77,0008.54,0007.48
2021-09-11 18:26:00,,0829.0,5.02,0.00,29.0,26.9,00.0,38.0,30.7,14.8,0001.9,0013.71,0008.52,0007.51
2021-09-11 18:27:00,,0829.0,4.99,0.00,29.0,27.3,00.0,38.0,30.8,14.9,0001.7,0013.79,0008.54,0007.54
2021-09-11 18:28:00,,0828.9,5.00,0.00,29.1,27.6,00.0,38.0,30.9,14.9,0001.8,0013.83,0008.61,0007.59
2021-09-11 18:29:00,,0828.9,5.00,0.00,29.1,27.6,00.0,38.0,30.9,14.6,0001.9,0013.59,0008.67,0007.63
2021-09-11 18:30:00,,0828.9,5.01,0.00,29.0,26.3,00.0,38.0,30.6,14.7,0001.8,0013.46,0008.64,0007.64
2021-09-11 18:31:00,,0828.9,5.00,0.00,28.9,26.0,00.0,38.0,30.4,14.7,0001.6,0013.42,0008.60,0007.64
2021-09-11 18:32:00,,0828.8,5.01,0.00,28.9,26.5,00.0,38.0,30.6,14.6,0001.4,0013.72,0008.66,0007.64
2021-09-11 18:33:00,,0828.9,5.00,0.00,28.9,26.9,00.0,38.0,30.7,14.8,0001.5,0014.70,0008.72,0007.64
2021-09-11 18:34:00,,0828.8,5.00,0.00,29.0,27.3,00.0,38.0,30.8,15.3,0001.4,0014.56,0008.77,0007.65
2021-09-11 18:35:00,,0829.0,5.00,0.00,29.0,27.6,00.0,38.0,30.9,14.9,0001.4,0014.61,0008.80,0007.66
2021-09-11 18:36:00,,0829.3,5.00,0.00,29.1,27.5,00.0,38.0,30.9,14.8,0001.8,0014.68,0008.83,0007.66
2021-09-11 18:37:00,,0828.7,5.00,0.00,29.0,26.2,00.0,38.0,30.5,15.1,0002.1,0014.60,0008.86,0007.66
2021-09-11 18:38:00,,0828.9,5.00,0.00,28.9,26.0,00.0,38.0,30.4,15.0,0002.1,0014.58,0008.86,0007.65
2021-09-11 18:39:00,,0828.9,5.01,0.00,28.9,26.5,00.0,38.0,30.6,15.1,0002.1,0014.62,0008.86,0007.64
2021-09-11 18:40:00,,0829.0,4.99,0.00,28.9,26.9,00.0,38.0,30.6,14.9,0002.2,0014.45,0008.83,0007.64
2021-09-11 18:41:00,,0829.0,5.01,0.00,29.0,27.3,00.0,38.0,30.8,15.1,0002.1,0014.49,0008.82,0007.63
2021-09-11 18:42:00,,0828.9,4.99,0.00,29.0,27.6,00.0,38.0,30.9,14.7,0002.1,0015.56,0008.89,0007.63
2021-09-11 18:43:00,,0828.8,5.00,0.00,29.1,27.9,00.0,38.0,31.0,14.2,0002.2,0017.56,0008.97,0007.62
2021-09-11 18:44:00,,0828.9,4.99,0.00,29.1,27.7,00.0,38.0,30.9,14.2,0002.4,0017.13,0008.93,0007.61
2021-09-11 18:45:00,,0828.8,5.01,0.00,29.1,26.3,00.0,38.0,30.6,14.4,0002.5,0017.01,0008.89,0007.59
2021-09-11 18:46:00,,0828.8,5.00,0.00,29.0,26.0,00.0,38.0,30.5,14.6,0002.6,0016.90,0008.85,0007.57
2021-09-11 18:47:00,,0829.1,5.01,0.00,28.9,26.5,00.0,38.0,30.6,14.8,0002.3,0016.86,0008.84,0007.56
2021-09-11 18:48:00,,0829.1,5.00,0.00,29.0,26.9,00.0,38.0,30.7,14.7,0002.1,0016.88,0008.85,0007.56
2021-09-11 18:49:00,,0828.9,5.00,0.00,29.0,27.4,00.0,38.0,30.8,14.9,0001.9,0016.70,0008.81,0007.54
2021-09-11 18:50:00,,0828.7,4.99,0.00,29.1,27.7,00.0,38.0,30.9,15.1,0001.8,0016.36,0008.74,0007.52
2021-09-11 18:51:00,,0828.8,5.02,0.00,29.1,27.5,00.0,38.0,30.8,14.9,0001.8,0016.75,0008.72,0007.50
2021-09-11 18:52:00,,0828.5,5.00,0.00,29.0,26.1,00.0,38.0,30.5,15.0,0001.8,0017.26,0008.68,0007.49
2021-09-11 18:53:00,,0828.4,5.00,0.00,28.9,26.0,00.0,38.0,30.4,15.0,0002.0,0016.75,0008.61,0007.48
2021-09-11 18:54:00,,0828.4,4.99,0.00,28.9,26.5,00.0,38.0,30.6,14.5,0001.7,0015.37,0008.50,0007.45
2021-09-11 18:55:00,,0828.4,5.00,0.00,28.9,26.9,00.0,37.9,30.7,14.1,0001.4,0015.08,0008.44,0007.42
2021-09-11 18:56:00,,0828.5,5.00,0.00,28.9,27.3,00.0,37.9,30.8,13.7,0001.2,0015.21,0008.41,0007.37
2021-09-11 18:57:00,,0828.6,5.01,0.00,29.0,27.6,00.0,38.0,30.9,13.7,0001.1,0015.44,0008.39,0007.33
2021-09-11 18:58:00,,0828.5,5.00,0.00,29.1,27.8,00.0,38.0,31.0,13.9,0001.3,0015.62,0008.33,0007.27
2021-09-11 18:59:00,,0828.5,5.01,0.00,29.1,26.8,00.0,38.0,30.6,14.4,0001.5,0015.85,0008.24,0007.23
